Date String (YYYY-MM-DD hh:mm:ss) UTC,Instrument flags,absolute air pressure of the measurement (hPa),sample flow rate (lpm),inlet stack bypass flow (lpm),air temperature of the measurement (°C),ambient temperature measured by the external sensor (°C),aerosol sample conditioner tube jacket temperature (°C),OPC LED temperature (°C),internal box temperature (°C),relative humidity of the measurement (%),span deviation,mass concentration of particles derived from Lorenz-Mie calculation of OPC scattering (μg/m³),mass concentration of particles derived from Lorenz-Mie calculation of OPC scattering (μg/m³),mass concentration of particles derived from Lorenz-Mie calculation of OPC scattering (μg/m³)
DateTimeUTC,F1_M11,P_M11,Q1_M11,Q2_M11,T1_M11,T2_M11,T3_M11,T4_M11,T5_M11,U1_M11,ZSPAN_M11,X2_M11,X0_M11,X1_M11
2024-03-07 07:00:00,SystemResetWarning,0822.6,5.01,000.00,020.3,019.5,000.0,028.9,022.1,19.5,0000.0,0002.50,0008.78,0001.22
2024-03-07 07:01:00,SystemResetWarning,0822.7,5.01,000.00,020.3,019.6,000.0,028.9,022.1,19.5,0000.0,0002.47,0008.71,0001.21
2024-03-07 07:02:00,SystemResetWarning,0822.6,4.99,000.00,020.3,019.5,000.0,028.9,022.1,19.5,0000.0,0002.44,0008.66,0001.21
2024-03-07 07:03:00,SystemResetWarning,0822.6,4.99,000.00,020.3,019.5,000.0,028.9,022.1,19.5,0000.0,0002.44,0008.77,0001.23
2024-03-07 07:04:00,SystemResetWarning,0822.6,5.00,000.00,020.3,019.5,000.0,028.9,022.1,19.5,0000.0,0002.45,0008.81,0001.23
2024-03-07 07:05:00,SystemResetWarning,0822.6,5.01,000.00,020.3,019.5,000.0,028.9,022.1,19.5,0000.0,0002.47,0008.89,0001.22
2024-03-07 07:06:00,SystemResetWarning,0822.6,5.01,000.00,020.3,019.4,000.0,028.9,022.0,19.5,0000.0,0002.52,0009.61,0001.22
2024-03-07 07:07:00,SystemResetWarning,0822.6,5.00,000.00,020.3,019.4,000.0,028.9,022.0,19.5,0000.0,0002.55,0009.37,0001.23
2024-03-07 07:08:00,SystemResetWarning,0822.6,4.99,000.00,020.2,019.4,000.0,028.8,022.0,19.5,0000.0,0002.50,0008.01,0001.22
2024-03-07 07:09:00,SystemResetWarning,0822.6,4.99,000.00,020.2,019.4,000.0,028.8,022.0,19.5,0000.0,0002.48,0008.04,0001.21
2024-03-07 07:10:00,SystemResetWarning,0822.7,5.00,000.00,020.2,019.4,000.0,028.8,022.0,19.5,0000.0,0002.40,0007.92,0001.19
2024-03-07 07:11:00,SystemResetWarning,0822.7,5.00,000.00,020.2,019.4,000.0,028.8,022.0,19.5,0000.0,0002.36,0007.84,0001.19
2024-03-07 07:12:00,SystemResetWarning,0822.8,5.00,000.00,020.2,019.4,000.0,028.8,022.0,19.5,0000.0,0002.34,0007.81,0001.18
2024-03-07 07:13:00,SystemResetWarning,0822.9,5.00,000.00,020.2,019.4,000.0,028.8,022.1,19.4,0000.0,0002.40,0007.95,0001.16
2024-03-07 07:14:00,SystemResetWarning,0822.8,5.01,000.00,020.2,019.4,000.0,028.8,022.1,19.4,0000.0,0002.37,0007.82,0001.15
2024-03-07 07:15:00,SystemResetWarning,0822.8,5.00,000.00,020.2,019.4,000.0,028.8,022.1,19.4,0000.0,0002.34,0007.63,0001.14
2024-03-07 07:16:00,SystemResetWarning,0822.6,5.00,000.00,020.2,019.4,000.0,028.8,022.0,19.4,0000.0,0002.32,0008.57,0001.12
2024-03-07 07:17:00,SystemResetWarning,0822.6,5.01,000.00,020.2,019.4,000.0,028.8,022.0,19.4,0000.0,0002.25,0007.95,0001.11
2024-03-07 07:18:00,SystemResetWarning,0822.6,5.00,000.00,020.2,019.4,000.0,028.8,022.0,19.4,0000.0,0002.24,0007.33,0001.12
2024-03-07 07:19:00,SystemResetWarning,0822.8,5.00,000.00,020.2,019.4,000.0,028.8,022.0,19.4,0000.0,0002.21,0007.31,0001.12
2024-03-07 07:20:00,SystemResetWarning,0822.7,4.99,000.00,020.2,019.4,000.0,028.8,022.0,19.4,0000.0,0002.20,0007.42,0001.12
2024-03-07 07:21:00,SystemResetWarning,0822.7,5.00,000.00,020.2,019.4,000.0,028.8,022.0,19.4,0000.0,0002.20,0007.40,0001.12
2024-03-07 07:22:00,SystemResetWarning,0822.7,5.00,000.00,020.2,019.5,000.0,028.8,022.0,19.4,0000.0,0002.17,0007.25,0001.11
2024-03-07 07:23:00,SystemResetWarning,0822.7,4.99,000.00,020.2,019.5,000.0,028.8,022.1,19.3,0000.0,0002.19,0007.43,0001.11
2024-03-07 07:24:00,SystemResetWarning,0822.7,5.00,000.00,020.2,019.5,000.0,028.8,022.1,19.3,0000.0,0002.21,0007.75,0001.11
2024-03-07 07:25:00,SystemResetWarning,0822.7,5.01,000.00,020.2,019.5,000.0,028.8,022.1,19.3,0000.0,0002.21,0007.86,0001.11
2024-03-07 07:26:00,SystemResetWarning,0822.7,5.02,000.00,020.2,019.6,000.0,028.8,022.1,19.3,0000.0,0002.24,0008.18,0001.09
2024-03-07 07:27:00,SystemResetWarning,0822.7,5.00,000.00,020.2,019.6,000.0,028.8,022.1,19.2,0000.0,0002.19,0007.18,0001.10
2024-03-07 07:28:00,SystemResetWarning,0822.7,4.99,000.00,020.3,019.6,000.0,028.8,022.1,19.3,0000.0,0002.20,0006.44,0001.10
2024-03-07 07:29:00,SystemResetWarning,0822.7,4.99,000.00,020.3,019.6,000.0,028.8,022.1,19.3,0000.0,0002.22,0006.65,0001.10
2024-03-07 07:30:00,SystemResetWarning,0822.8,5.00,000.00,020.3,019.6,000.0,028.8,022.1,19.3,0000.0,0002.27,0006.99,0001.10
2024-03-07 07:31:00,SystemResetWarning,0822.7,5.01,000.00,020.3,019.6,000.0,028.8,022.1,19.4,0000.0,0002.25,0007.14,0001.11
2024-03-07 07:32:00,SystemResetWarning,0822.7,5.01,000.00,020.3,019.6,000.0,028.8,022.1,19.4,0000.0,0002.20,0006.93,0001.11
2024-03-07 07:33:00,SystemResetWarning,0822.7,4.99,000.00,020.3,019.6,000.0,028.8,022.1,19.5,0000.0,0002.18,0007.03,0001.10
2024-03-07 07:34:00,SystemResetWarning,0822.7,4.99,000.00,020.3,019.6,000.0,028.8,022.1,19.6,0000.0,0002.19,0007.31,0001.10
2024-03-07 07:35:00,SystemResetWarning,0822.7,5.00,000.00,020.3,019.6,000.0,028.8,022.1,19.6,0000.0,0002.15,0007.12,0001.10
2024-03-07 07:36:00,SystemResetWarning,0822.7,5.00,000.00,020.3,019.6,000.0,028.8,022.1,19.7,0000.0,0002.12,0007.08,0001.10
2024-03-07 07:37:00,SystemResetWarning,0822.7,5.01,000.00,020.3,019.6,000.0,028.8,022.1,19.7,0000.0,0002.10,0007.34,0001.11
2024-03-07 07:38:00,SystemResetWarning,0822.7,5.00,000.00,020.3,019.6,000.0,028.8,022.1,19.8,0000.0,0002.13,0007.65,0001.11
2024-03-07 07:39:00,SystemResetWarning,0822.7,5.00,000.00,020.3,019.6,000.0,028.8,022.1,19.7,0000.0,0002.11,0007.67,0001.11
2024-03-07 07:40:00,SystemResetWarning,0822.7,4.99,000.00,020.3,019.6,000.0,028.8,022.1,19.7,0000.0,0002.09,0007.68,0001.11
2024-03-07 07:41:00,SystemResetWarning,0822.7,4.99,000.00,020.3,019.6,000.0,028.8,022.1,19.7,0000.0,0002.11,0008.11,0001.10
2024-03-07 07:42:00,SystemResetWarning,0822.6,4.99,000.00,020.3,019.6,000.0,028.8,022.1,19.7,0000.0,0002.16,0007.98,0001.09
2024-03-07 07:43:00,SystemResetWarning,0822.8,5.01,000.00,020.3,019.6,000.0,028.8,022.1,19.7,0000.0,0002.22,0008.30,0001.09
2024-03-07 07:44:00,SystemResetWarning,0822.8,5.01,000.00,020.3,019.6,000.0,028.8,022.1,19.8,0000.0,0002.23,0008.32,0001.10
2024-03-07 07:45:00,SystemResetWarning,0822.6,4.99,000.00,020.3,019.6,000.0,028.8,022.1,19.8,0000.0,0002.29,0008.15,0001.11
2024-03-07 07:46:00,SystemResetWarning,0822.7,5.00,000.00,020.3,019.6,000.0,028.8,022.2,19.8,0000.0,0002.29,0007.91,0001.12
2024-03-07 07:47:00,SystemResetWarning,0822.8,4.99,000.00,020.3,019.7,000.0,028.8,022.1,19.8,0000.0,0002.27,0008.06,0001.12
2024-03-07 07:48:00,SystemResetWarning,0822.7,5.00,000.00,020.3,019.6,000.0,028.8,022.1,19.8,0000.0,0002.29,0007.77,0001.12
2024-03-07 07:49:00,SystemResetWarning,0823.0,5.00,000.00,020.3,019.6,000.0,028.8,022.1,19.8,0000.0,0002.35,0007.63,0001.13
2024-03-07 07:50:00,SystemResetWarning,0822.6,5.00,000.00,020.3,019.6,000.0,028.8,022.2,19.8,0000.0,0002.47,0008.01,0001.14
2024-03-07 07:51:00,SystemResetWarning,0822.9,5.00,000.00,020.3,019.6,000.0,028.8,022.1,19.8,0000.0,0002.55,0008.20,0001.16
2024-03-07 07:52:00,SystemResetWarning,0822.6,5.00,000.00,020.3,019.6,000.0,028.8,022.1,19.8,0000.0,0002.56,0008.11,0001.18
2024-03-07 07:53:00,SystemResetWarning,0822.7,5.00,000.00,020.3,019.6,000.0,028.8,022.2,19.8,0000.0,0002.52,0008.02,0001.18
2024-03-07 07:54:00,SystemResetWarning,0822.8,5.00,000.00,020.3,019.6,000.0,028.8,022.1,19.8,0000.0,0002.51,0007.76,0001.20
2024-03-07 07:55:00,SystemResetWarning,0822.6,5.00,000.00,020.3,019.6,000.0,028.9,022.1,19.8,0000.0,0002.55,0007.92,0001.21
2024-03-07 07:56:00,SystemResetWarning,0822.7,5.01,000.00,020.3,019.6,000.0,028.9,022.1,19.8,0000.0,0002.52,0007.81,0001.22
2024-03-07 07:57:00,SystemResetWarning,0822.7,4.99,000.00,020.3,019.6,000.0,028.8,022.1,19.8,0000.0,0002.52,0007.83,0001.24
2024-03-07 07:58:00,SystemResetWarning,0822.6,4.99,000.00,020.3,019.6,000.0,028.8,022.1,19.8,0000.0,0002.56,0007.70,0001.25
2024-03-07 07:59:00,SystemResetWarning,0822.8,5.00,000.00,020.3,019.6,000.0,028.8,022.1,19.8,0000.0,0002.58,0007.62,0001.26
